| time (UTC) | temp F | wind direction | speed knots | gust knots | rain 1hr in | rain 24hr in | rain mn in | humidity % | barometer mb |
| 20260507151521 | 74 | 0.0 | 0.0 | 0.00 | 0.08 | 0.00 | 38 | 1013.4 | |
| 20260507150525 | 75 | 354 | 0.0 | 5.2 | 0.00 | 0.08 | 0.00 | 40 | 1013.4 |
| 20260507145522 | 74 | 129 | 1.7 | 5.2 | 0.00 | 0.08 | 0.00 | 40 | 1013.4 |
| 20260507144524 | 74 | 128 | 2.6 | 6.1 | 0.00 | 0.08 | 0.00 | 41 | 1013.4 |
| 20260507143523 | 73 | 82 | 1.7 | 5.2 | 0.00 | 0.13 | 0.00 | 42 | 1013.4 |
| 20260507142544 | 72 | 133 | 0.0 | 4.3 | 0.00 | 0.13 | 0.00 | 43 | 1013.4 |
| 20260507141523 | 73 | 336 | 1.7 | 7.8 | 0.00 | 0.13 | 0.00 | 43 | 1013.4 |
| 20260507140521 | 72 | 310 | 1.7 | 5.2 | 0.00 | 0.13 | 0.00 | 43 | 1014.4 |
| 20260507135525 | 72 | 201 | 0.9 | 6.1 | 0.00 | 0.17 | 0.00 | 44 | 1014.4 |
| 20260507134530 | 72 | 162 | 0.0 | 3.5 | 0.00 | 0.17 | 0.00 | 44 | 1014.4 |
| 20260507133529 | 72 | 304 | 2.6 | 5.2 | 0.00 | 0.17 | 0.00 | 45 | 1014.4 |
| 20260507132527 | 72 | 194 | 2.6 | 7.0 | 0.00 | 0.17 | 0.00 | 47 | 1014.4 |
| 20260507131524 | 71 | 110 | 0.9 | 3.5 | 0.00 | 0.17 | 0.00 | 48 | 1014.4 |
| 20260507130523 | 70 | 189 | 2.6 | 7.0 | 0.00 | 0.17 | 0.00 | 48 | 1014.4 |
| 20260507125520 | 69 | 333 | 3.5 | 5.2 | 0.00 | 0.17 | 0.00 | 48 | 1015.2 |
| 20260507124533 | 69 | 317 | 2.6 | 5.2 | 0.00 | 0.21 | 0.00 | 49 | 1015.4 |
| 20260507123531 | 68 | 295 | 2.6 | 6.1 | 0.00 | 0.21 | 0.00 | 50 | 1015.4 |
| 20260507122522 | 68 | 284 | 0.9 | 4.3 | 0.00 | 0.25 | 0.00 | 50 | 1015.4 |
| 20260507121527 | 70 | 237 | 0.9 | 6.1 | 0.00 | 0.25 | 0.00 | 51 | 1015.4 |
| 20260507120536 | 70 | 143 | 2.6 | 7.0 | 0.00 | 0.25 | 0.00 | 51 | 1015.4 |
| 20260507115523 | 69 | 177 | 1.7 | 5.2 | 0.00 | 0.25 | 0.00 | 53 | 1015.4 |
| 20260507114523 | 68 | 286 | 2.6 | 7.0 | 0.00 | 0.25 | 0.00 | 54 | 1015.4 |
| 20260507113533 | 67 | 0.0 | 0.0 | 0.00 | 0.25 | 0.00 | 55 | 1015.4 | |
| 20260507112520 | 67 | 289 | 1.7 | 6.1 | 0.00 | 0.25 | 0.00 | 56 | 1015.4 |
| 20260507111529 | 66 | 0.0 | 0.9 | 0.00 | 0.25 | 0.00 | 57 | 1015.4 | |
| 20260507110547 | 66 | 309 | 3.5 | 6.1 | 0.00 | 0.25 | 0.00 | 57 | 1015.4 |
| 20260507105528 | 66 | 315 | 0.0 | 5.2 | 0.00 | 0.25 | 0.00 | 59 | 1015.4 |
| 20260507104523 | 64 | 320 | 1.7 | 5.2 | 0.00 | 0.25 | 0.00 | 60 | 1015.4 |
| 20260507103601 | 65 | 351 | 2.6 | 7.0 | 0.00 | 0.25 | 0.00 | 60 | 1015.4 |
| 20260507102529 | 64 | 311 | 2.6 | 5.2 | 0.00 | 0.25 | 0.00 | 62 | 1016.3 |
| 20260507101531 | 64 | 308 | 0.9 | 5.2 | 0.00 | 0.25 | 0.00 | 63 | 1016.5 |
| 20260507100529 | 63 | 283 | 1.7 | 6.1 | 0.00 | 0.25 | 0.00 | 64 | 1016.5 |
| 20260507095546 | 63 | 286 | 1.7 | 5.2 | 0.00 | 0.25 | 0.00 | 65 | 1016.5 |
| 20260507094545 | 63 | 257 | 0.0 | 3.5 | 0.00 | 0.25 | 0.00 | 66 | 1016.5 |
| 20260507093523 | 63 | 325 | 3.5 | 6.1 | 0.00 | 0.25 | 0.00 | 66 | 1016.5 |
| 20260507092526 | 63 | 190 | 0.0 | 0.9 | 0.00 | 0.25 | 0.00 | 69 | 1016.5 |
| 20260507091520 | 61 | 0.0 | 0.0 | 0.00 | 0.25 | 0.00 | 71 | 1016.5 | |
| 20260507090531 | 61 | 0.0 | 0.0 | 0.00 | 0.25 | 0.00 | 72 | 1016.5 | |
| 20260507085525 | 61 | 208 | 1.7 | 3.5 | 0.00 | 0.25 | 0.00 | 74 | 1016.5 |
| 20260507084528 | 61 | 258 | 0.0 | 2.6 | 0.00 | 0.25 | 0.00 | 74 | 1016.5 |
| 20260507083525 | 61 | 0.0 | 0.0 | 0.00 | 0.25 | 0.00 | 76 | 1016.5 | |
| 20260507082523 | 60 | 225 | 0.0 | 1.7 | 0.00 | 0.25 | 0.00 | 77 | 1015.7 |
| 20260507081521 | 59 | 0.0 | 0.0 | 0.00 | 0.25 | 0.00 | 77 | 1015.4 | |
| 20260507080521 | 59 | 0.0 | 0.0 | 0.00 | 0.25 | 0.00 | 78 | 1016.5 | |
| 20260507075524 | 59 | 165 | 0.0 | 0.0 | 0.00 | 0.25 | 0.00 | 79 | 1015.7 |
| 20260507074529 | 59 | 142 | 0.0 | 3.5 | 0.00 | 0.25 | 0.00 | 79 | 1015.4 |
| 20260507073527 | 59 | 124 | 0.9 | 3.5 | 0.00 | 0.25 | 0.00 | 81 | 1015.4 |
| 20260507072525 | 58 | 0.0 | 0.9 | 0.00 | 0.25 | 0.00 | 82 | 1016.2 | |
| 20260507071526 | 58 | 113 | 0.0 | 0.0 | 0.00 | 0.25 | 0.00 | 83 | 1016.5 |
| 20260507070541 | 57 | 119 | 0.9 | 3.5 | 0.00 | 0.25 | 0.00 | 85 | 1015.4 |
| 20260507065540 | 56 | 53 | 0.0 | 2.6 | 0.00 | 0.25 | 0.00 | 86 | 1015.4 |
| 20260507064520 | 55 | 0.0 | 0.0 | 0.00 | 0.25 | 0.00 | 87 | 1015.4 | |
| 20260507063526 | 54 | 113 | 0.0 | 0.0 | 0.00 | 0.25 | 0.00 | 88 | 1015.4 |
| 20260507062522 | 53 | 113 | 0.0 | 0.9 | 0.00 | 0.25 | 0.00 | 88 | 1015.4 |
| 20260507061539 | 53 | 0.0 | 0.0 | 0.00 | 0.25 | 0.00 | 88 | 1015.4 | |
| 20260507060523 | 52 | 113 | 0.0 | 1.7 | 0.00 | 0.25 | 0.00 | 88 | 1015.4 |
| 20260507055521 | 52 | 0.0 | 0.0 | 0.00 | 0.25 | 0.00 | 88 | 1015.4 | |
| 20260507054525 | 52 | 0.0 | 0.0 | 0.00 | 0.25 | 0.00 | 88 | 1015.4 | |
| 20260507053532 | 51 | 158 | 0.0 | 1.7 | 0.00 | 0.25 | 0.00 | 88 | 1015.4 |
| 20260507052549 | 51 | 0.0 | 0.0 | 0.00 | 0.25 | 0.00 | 88 | 1015.4 | |
| 20260507051528 | 51 | 135 | 0.0 | 0.9 | 0.00 | 0.25 | 0.00 | 88 | 1015.4 |
| 20260507050522 | 51 | 0.0 | 0.0 | 0.00 | 0.25 | 0.00 | 88 | 1015.4 | |
| 20260507045540 | 51 | 0.0 | 0.0 | 0.00 | 0.25 | 0.00 | 88 | 1015.4 | |
| 20260507044541 | 52 | 0.0 | 0.9 | 0.00 | 0.25 | 0.00 | 88 | 1015.4 | |
| 20260507043520 | 52 | 0.0 | 0.0 | 0.00 | 0.25 | 0.00 | 88 | 1015.4 | |
| 20260507042531 | 52 | 0.0 | 0.0 | 0.00 | 0.25 | 0.00 | 88 | 1015.4 | |
| 20260507041529 | 53 | 180 | 0.0 | 1.7 | 0.00 | 0.25 | 0.00 | 88 | 1015.4 |
| 20260507040528 | 53 | 0.0 | 0.0 | 0.00 | 0.25 | 0.00 | 88 | 1015.4 | |
| 20260507035546 | 53 | 0.0 | 0.0 | 0.00 | 0.25 | 0.00 | 88 | 1015.4 | |
| 20260507034524 | 53 | 113 | 0.0 | 1.7 | 0.00 | 0.25 | 0.00 | 87 | 1015.4 |
| 20260507033522 | 53 | 0.0 | 0.0 | 0.00 | 0.25 | 0.00 | 87 | 1015.4 | |
| 20260507032520 | 53 | 0.0 | 0.0 | 0.00 | 0.25 | 0.00 | 87 | 1015.4 | |
| 20260507031525 | 53 | 0.0 | 0.0 | 0.00 | 0.25 | 0.00 | 87 | 1015.4 | |
| 20260507030529 | 53 | 0.0 | 0.0 | 0.00 | 0.25 | 0.00 | 87 | 1015.4 | |
| 20260507025522 | 53 | 0.0 | 0.0 | 0.00 | 0.25 | 0.00 | 87 | 1015.4 | |
| 20260507024523 | 53 | 0.0 | 0.0 | 0.00 | 0.25 | 0.00 | 87 | 1015.4 | |
| 20260507023524 | 53 | 0.0 | 0.0 | 0.00 | 0.25 | 0.00 | 87 | 1015.4 | |
| 20260507022522 | 53 | 180 | 0.0 | 1.7 | 0.00 | 0.25 | 0.00 | 87 | 1015.4 |
| 20260507021522 | 53 | 180 | 0.0 | 2.6 | 0.00 | 0.25 | 0.00 | 87 | 1015.4 |
| 20260507020554 | 53 | 0.0 | 0.0 | 0.00 | 0.25 | 0.00 | 87 | 1015.4 | |
| 20260507015534 | 53 | 179 | 0.9 | 4.3 | 0.00 | 0.25 | 0.00 | 87 | 1015.4 |
| 20260507014525 | 53 | 193 | 0.0 | 1.7 | 0.00 | 0.25 | 0.00 | 87 | 1015.4 |
| 20260507013526 | 53 | 189 | 0.0 | 1.7 | 0.00 | 0.25 | 0.00 | 87 | 1015.4 |
| 20260507012611 | 54 | 189 | 0.9 | 3.5 | 0.00 | 0.25 | 0.00 | 87 | 1015.4 |
| 20260507011554 | 54 | 198 | 1.7 | 5.2 | 0.00 | 0.25 | 0.00 | 87 | 1015.4 |
| 20260507010529 | 54 | 188 | 0.9 | 5.2 | 0.00 | 0.25 | 0.00 | 87 | 1015.4 |
| 20260507005535 | 54 | 191 | 0.9 | 3.5 | 0.00 | 0.25 | 0.00 | 87 | 1015.4 |
| 20260507004525 | 54 | 169 | 1.7 | 5.2 | 0.00 | 0.25 | 0.00 | 87 | 1015.4 |
| 20260507003549 | 54 | 174 | 0.9 | 2.6 | 0.00 | 0.25 | 0.00 | 87 | 1015.4 |
| 20260507002526 | 54 | 187 | 0.9 | 5.2 | 0.00 | 0.25 | 0.00 | 87 | 1015.4 |
| 20260507001547 | 54 | 179 | 2.6 | 5.2 | 0.00 | 0.25 | 0.00 | 87 | 1015.4 |
| 20260507000522 | 54 | 189 | 1.7 | 5.2 | 0.00 | 0.25 | 0.00 | 88 | 1015.4 |
| 20260506235520 | 54 | 175 | 3.5 | 6.1 | 0.00 | 0.25 | 0.00 | 88 | 1015.4 |
| 20260506234526 | 54 | 178 | 1.7 | 5.2 | 0.00 | 0.25 | 0.00 | 87 | 1015.4 |
| 20260506233521 | 54 | 173 | 0.9 | 4.3 | 0.00 | 0.25 | 0.00 | 87 | 1015.4 |
| 20260506232528 | 54 | 177 | 1.7 | 4.3 | 0.00 | 0.25 | 0.00 | 87 | 1015.4 |
| 20260506231526 | 54 | 166 | 1.7 | 6.1 | 0.00 | 0.29 | 0.00 | 87 | 1015.4 |
| 20260506230545 | 54 | 160 | 0.9 | 3.5 | 0.00 | 0.29 | 0.00 | 87 | 1015.4 |
| 20260506225525 | 54 | 142 | 0.0 | 3.5 | 0.00 | 0.29 | 0.00 | 87 | 1015.4 |
| 20260506224521 | 54 | 225 | 0.0 | 1.7 | 0.00 | 0.33 | 0.00 | 87 | 1015.4 |
| 20260506223533 | 54 | 190 | 0.9 | 4.3 | 0.00 | 0.33 | 0.00 | 87 | 1015.4 |
| 20260506222531 | 54 | 0.0 | 0.0 | 0.00 | 0.33 | 0.00 | 86 | 1015.4 | |
| 20260506221528 | 55 | 182 | 1.7 | 3.5 | 0.00 | 0.33 | 0.00 | 86 | 1015.4 |
| 20260506220520 | 55 | 177 | 1.7 | 4.3 | 0.00 | 0.33 | 0.00 | 86 | 1015.4 |
| 20260506215524 | 55 | 189 | 1.7 | 4.3 | 0.00 | 0.33 | 0.33 | 87 | 1015.4 |
| 20260506214544 | 55 | 197 | 0.9 | 3.5 | 0.00 | 0.33 | 0.33 | 86 | 1015.4 |
| 20260506213521 | 55 | 205 | 0.0 | 3.5 | 0.00 | 0.33 | 0.33 | 86 | 1015.4 |
| 20260506212552 | 55 | 199 | 0.9 | 2.6 | 0.00 | 0.33 | 0.33 | 86 | 1015.4 |
| 20260506211607 | 55 | 205 | 0.9 | 4.3 | 0.00 | 0.33 | 0.33 | 86 | 1015.4 |
| 20260506210529 | 55 | 199 | 1.7 | 4.3 | 0.00 | 0.33 | 0.33 | 86 | 1015.4 |
| 20260506205530 | 55 | 194 | 1.7 | 5.2 | 0.00 | 0.33 | 0.33 | 86 | 1015.4 |
| 20260506204529 | 55 | 184 | 0.0 | 3.5 | 0.00 | 0.33 | 0.33 | 86 | 1015.4 |
| 20260506203527 | 55 | 170 | 0.0 | 4.3 | 0.00 | 0.33 | 0.33 | 86 | 1015.4 |
| 20260506202541 | 55 | 180 | 0.0 | 0.0 | 0.00 | 0.33 | 0.33 | 86 | 1015.4 |
| 20260506201520 | 55 | 162 | 0.0 | 3.5 | 0.00 | 0.33 | 0.33 | 85 | 1015.4 |
| 20260506200531 | 55 | 0.0 | 0.0 | 0.00 | 0.33 | 0.33 | 85 | 1015.4 | |
| 20260506195525 | 55 | 180 | 0.0 | 2.6 | 0.00 | 0.33 | 0.33 | 85 | 1014.8 |
| 20260506194530 | 55 | 0.0 | 0.0 | 0.00 | 0.33 | 0.33 | 84 | 1014.4 | |
| 20260506193520 | 56 | 0.0 | 0.0 | 0.00 | 0.33 | 0.33 | 84 | 1014.4 | |
| 20260506192523 | 56 | 0.0 | 0.0 | 0.00 | 0.33 | 0.33 | 83 | 1014.4 | |
| 20260506191521 | 56 | 0.0 | 0.0 | 0.00 | 0.33 | 0.33 | 83 | 1014.4 | |
| 20260506190533 | 56 | 0.0 | 0.0 | 0.00 | 0.33 | 0.33 | 82 | 1014.4 | |
| 20260506185533 | 56 | 0.0 | 0.0 | 0.00 | 0.33 | 0.33 | 81 | 1014.4 | |
| 20260506184524 | 57 | 0.0 | 0.0 | 0.00 | 0.33 | 0.33 | 80 | 1014.4 | |
| 20260506183520 | 57 | 0.0 | 0.0 | 0.00 | 0.33 | 0.33 | 79 | 1014.4 | |
| 20260506182521 | 58 | 180 | 0.0 | 1.7 | 0.00 | 0.33 | 0.33 | 79 | 1013.8 |
| 20260506181543 | 58 | 183 | 0.9 | 3.5 | 0.00 | 0.33 | 0.33 | 78 | 1013.4 |
| 20260506180521 | 58 | 180 | 0.0 | 0.0 | 0.00 | 0.33 | 0.33 | 78 | 1013.4 |
| 20260506175535 | 59 | 184 | 0.9 | 4.3 | 0.00 | 0.33 | 0.33 | 77 | 1013.4 |
| 20260506174532 | 60 | 235 | 0.0 | 2.6 | 0.00 | 0.33 | 0.33 | 78 | 1013.4 |
| 20260506173542 | 59 | 200 | 0.9 | 3.5 | 0.00 | 0.33 | 0.33 | 78 | 1013.4 |
| 20260506172530 | 58 | 225 | 0.0 | 1.7 | 0.04 | 0.37 | 0.33 | 78 | 1013.4 |
| 20260506171531 | 58 | 312 | 0.0 | 2.6 | 0.04 | 0.37 | 0.33 | 78 | 1013.4 |
| 20260506170524 | 58 | 0.0 | 0.0 | 0.08 | 0.75 | 0.33 | 78 | 1013.4 | |
| 20260506165521 | 57 | 0.0 | 0.0 | 0.08 | 1.76 | 0.33 | 77 | 1013.4 | |
| 20260506164522 | 57 | 288 | 0.9 | 3.5 | 0.08 | 1.76 | 0.33 | 77 | 1013.4 |
| 20260506163522 | 58 | 8 | 0.0 | 1.7 | 0.08 | 1.76 | 0.33 | 77 | 1013.4 |
| 20260506162522 | 58 | 45 | 0.0 | 1.7 | 0.04 | 1.76 | 0.29 | 76 | 1013.4 |
| 20260506161527 | 59 | 0.0 | 0.0 | 0.04 | 1.80 | 0.29 | 75 | 1013.4 | |
| 20260506160527 | 60 | 0.0 | 0.0 | 0.00 | 1.76 | 0.25 | 74 | 1013.4 | |
| 20260506155544 | 60 | 0.0 | 0.0 | 0.00 | 1.76 | 0.25 | 74 | 1013.4 | |
| 20260506154541 | 61 | 137 | 0.0 | 2.6 | 0.00 | 1.76 | 0.25 | 74 | 1013.4 |
| 20260506153519 | 61 | 0.0 | 0.0 | 0.04 | 1.76 | 0.25 | 74 | 1013.4 | |
| 20260506152524 | 61 | 160 | 1.7 | 3.5 | 0.04 | 1.76 | 0.25 | 74 | 1013.4 |